Flag for U.S.A. Weather past 2 weeks in Orange, California, U.S.A.

Now
79 °F

Sunny.


Feels Like: 80 °F
Forecast: 66 / 90 °F
Wind: 3 mph from West

Location: John Wayne Airport-Orange County Airport

Current Time: Aug 28, 2014 at 8:21:18 PM

Latest Report: Aug 28, 2014 at 7:53 PM


Visibility: 10 mi

Pressure: 29.88 "Hg

Humidity: 48%

Dew point: 58 °F

Location of OrangeLocation

Historic Weather in Orange — Graph

°F

Orange temperature yesterday

Maximum temperature yesterday: 92 °F (at 11:53 AM)
Minimum temperature yesterday: 70 °F (at 2:53 AM)
Average temperature yesterday: 80 °F

Past Weeks' High & Low Weather Summary

 TemperatureHumidityPressure
High92 °F (Aug 27, 11:53 AM)82% (Aug 15, 5:53 AM)30.03 "Hg (Aug 15, 5:53 AM)
Low68 °F (Aug 14, 2:53 AM)23% (Aug 27, 4:53 PM)29.79 "Hg (Aug 18, 4:53 PM)
Average76 °F61%29.92 "Hg
* Reported Aug 13 6:53 PM — Aug 28 6:53 PM, Orange, Weather by CustomWeather, © 2014

Note: Actual official high and low records may vary slightly from our data, if they occured in-between our weather recording intervals... More about our weather records

Advertising

Orange weather history for previous 24 hours

 ConditionsComfort  
Time TempWeatherWind HumidityBarometerVisibility
6:53 PM
Aug 28
80 °FSunny.3 mph52%29.87 "Hg10 mi
5:53 PM84 °FSunny.6 mph41%29.87 "Hg10 mi
4:53 PM87 °FSunny.9 mph37%29.88 "Hg10 mi
3:53 PM91 °FSunny.8 mph26%29.89 "Hg10 mi
2:53 PM89 °FSunny.9 mph35%29.90 "Hg10 mi
1:53 PM89 °FSunny.10 mph31%29.92 "Hg10 mi
12:53 PM92 °FSunny.8 mph27%29.94 "Hg10 mi
11:53 AM91 °FSunny.7 mph25%29.95 "Hg10 mi
10:53 AM88 °FSunny.No wind34%29.97 "Hg10 mi
9:53 AM85 °FSunny.No wind35%29.98 "Hg10 mi
8:53 AM80 °FSunny.No wind45%29.98 "Hg10 mi
7:53 AM75 °FSunny.3 mph58%29.99 "Hg10 mi
6:53 AM73 °FClear.No wind62%29.98 "Hg10 mi
5:53 AM73 °FClear.3 mph59%29.98 "Hg10 mi
4:53 AM73 °FClear.No wind57%29.97 "Hg10 mi
3:53 AM76 °FClear.3 mph50%29.98 "Hg10 mi
2:53 AM76 °FClear.No wind48%29.99 "Hg10 mi
1:53 AM77 °FClear.No wind44%29.99 "Hg10 mi
12:53 AM77 °FClear.No wind48%30.01 "Hg10 mi
11:53 PM
Aug 27
76 °FClear.No wind67%30.01 "Hg10 mi
10:53 PM77 °FClear.No wind62%30.00 "Hg10 mi
9:53 PM76 °FClear.No wind67%30.00 "Hg10 mi
8:53 PM77 °FClear.3 mph60%29.99 "Hg10 mi
Weather by CustomWeather, © 2014

See weather overviewHow to use our weather pages